Language selection

Features

My Weather Profile Weather Topics  | 

Johnstone Strait: Past 24 Hour Conditions

 

Sentry Shoal - 46131

10:00 AM PDT 09 July 2020Buoy position: 49.92N 125.0W
Disclaimer

This table is a summary of hourly weather conditions for the past 24 hours.
Please note that these observations might not always be representative of weather conditions over their associated marine area.

Date / Time
(PDT)
Wind(knots) Wave height(m) Wave period(s) Pressure(kPa) Air tempC) Water tempC)
09 July 2020
10:00 SE 13 gust 16 0.4 3.0 101.4 15 16
9:00 SSE 13 gust 17 0.3 2.0 101.4 15 16
8:00 SSE 12 gust 13 0.3 3.0 101.4 15 16
7:00 SSE 13 gust 16 0.3 3.0 101.4 15 16
6:00 SSE 12 gust 13 0.3 2.0 101.4 15 17
5:00 SSE 12 gust 13 0.4 3.0 101.4 15 17
4:00 SE 12 gust 13 0.3 2.0 101.5 15 17
3:00 SE 12 gust 13 0.3 2.0 101.5 16 17
2:00 ESE 12 gust 16 0.3 2.0 101.5 16 17
1:00 SE 12 gust 13 0.4 3.0 101.5 16 17
0:00 ESE 13 gust 16 0.3 3.0 101.5 16 17
08 July 2020
23:00 ESE 16 gust 17 0.4 3.0 101.5 16 17
22:00 SE 16 gust 17 0.4 3.0 101.6 16 17
21:00 ESE 13 gust 17 0.5 3.0 101.6 16 17
20:00 SE 16 gust 17 0.5 3.0 101.6 16 17
19:00 SE 13 gust 16 0.5 3.0 101.6 17 17
18:00 ESE 16 gust 17 0.6 4.0 101.6 17 17
17:00 ESE 16 gust 17 0.6 4.0 101.7 17 17
16:00 SE 13 gust 16 0.7 4.0 101.7 17 18
15:00 SE 16 gust 19 0.6 4.0 101.7 17 18
14:00 SE 16 gust 17 0.5 3.0 101.8 17 18
13:00 SE 13 gust 16 0.4 3.0 101.8 17 18
12:00 SE 13 gust 16 0.3 2.0 101.8 16 18
11:00 SE 16 gust 17 0.3 3.0 101.8 16 17
10:00 SE 12 gust 16 0.1 2.0 101.8 16 17

Zoom-in to make a selection

Map of Pacific - Georgia Basin marine weather areas Sentry Shoal - 46131 Halibut Bank - 46146 La Perouse Bank - 46206 Georgia Strait - 46303 English Bay - 46304 Discovery Island Esquimalt Harbour Kelp Reefs Malahat Race Rocks Lightstation Saturna Island Sheringham Point University of Victoria Victoria Gonzales Victoria Int'l Airport Ballenas Islands Campbell River Airport Comox Airport Entrance Island Fanny Island Nanaimo Airport Sisters Islets Estevan Point Port Alberni Tofino Airport Grief Point Howe Sound - Pam Rocks Powell River Airport Sechelt Squamish Airport Point Atkinson Sand Heads Lightstation Tsawwassen Ferry Terminal Vancouver Int'l Airport Vancouver Harbour West Vancouver
Legend:
buoy Buoy
land station Land Station

Pacific - Georgia Basin Area

Another Region

What we are doing

Date modified: